GW3763 Weather Reports


time (UTC)temp
F
wind
direction
speed
knots
gust
knots
rain 1hr
in
rain 24hr
in
rain mn
in
humidity
%
barometer
mb
20260504081708 0 208 0.9 1.7 0.00 0.00 0.00 1008.8
20260504081204 0 213 1.7 3.5 0.00 0.00 0.00 1008.8
20260504080700 0 215 1.7 3.5 0.00 0.00 0.00 1008.8
20260504080157 0 211 0.9 3.5 0.00 0.00 0.00 1008.9
20260504070125 0 211 0.9 5.2 0.00 0.00 0.00 1008.5
20260504050514 0 212 1.7 3.5 0.00 0.00 0.00 1008.9
20260504050010 0 211 0.9 1.7 0.00 0.00 0.00 1008.8
20260504045507 0 201 1.7 3.5 0.00 0.00 0.00 1008.9
20260504045002 0 211 0.9 2.6 0.00 0.00 0.00 1008.8
20260504044500 0 210 0.0 1.7 0.00 0.00 0.00 1008.7
20260504043957 0 209 0.9 3.5 0.00 0.00 0.00 1009.0
20260504043454 0 204 1.7 6.1 0.00 0.00 0.00 1008.8
20260504042952 0 211 0.9 0.9 0.00 0.00 0.00 1008.9
20260504042448 0 230 1.7 3.5 0.00 0.00 0.00 1008.8
20260504041945 0 201 0.9 5.2 0.00 0.00 0.00 1008.7
20260504041441 0 214 0.0 1.7 0.00 0.00 0.00 1008.8
20260504040937 0 213 2.6 2.6 0.00 0.00 0.00 1008.7
20260504040435 0 203 1.7 2.6 0.00 0.00 0.00 1008.7
20260504035931 0 209 0.0 1.7 0.00 0.00 0.00 1008.9
20260504035428 0 208 0.0 1.7 0.00 0.00 0.00 1008.8
20260504034925 0 211 0.0 1.7 0.00 0.00 0.00 1008.7
20260504034423 0 207 0.9 5.2 0.00 0.00 0.00 1008.8
20260504033919 0 212 0.9 1.7 0.00 0.00 0.00 1008.7
20260504033417 0 205 2.6 2.6 0.00 0.00 0.00 1008.6
20260504032914 0 207 1.7 1.7 0.00 0.00 0.00 1008.7
20260504032411 0 208 0.9 1.7 0.00 0.00 0.00 1008.6
20260504031907 0 207 0.9 2.6 0.00 0.00 0.00 1008.7
20260504031405 0 209 1.7 1.7 0.00 0.00 0.00 1008.6
20260504030901 0 210 0.0 2.6 0.00 0.00 0.00 1008.6
20260504030358 0 211 1.7 1.7 0.00 0.00 0.00 1008.6
20260504025854 0 205 3.5 6.1 0.00 0.00 0.00 1008.5
20260504025351 0 209 1.7 2.6 0.00 0.00 0.00 1008.8
20260504024848 0 209 0.9 1.7 0.00 0.00 0.00 1008.7
20260504024344 0 211 0.0 0.9 0.00 0.00 0.00 1008.7
20260504023841 0 224 1.7 2.6 0.00 0.00 0.00 1008.8
20260504023338 0 211 0.9 1.7 0.00 0.00 0.00 1008.8
20260504022834 0 209 0.9 1.7 0.00 0.00 0.00 1008.8
20260504022331 0 209 0.9 1.7 0.00 0.00 0.00 1008.6
20260504021827 0 209 0.0 1.7 0.00 0.00 0.00 1008.9
20260504021325 0 207 0.9 1.7 0.00 0.00 0.00 1008.6
20260504020822 0 211 0.9 0.9 0.00 0.00 0.00 1008.8
20260504020318 0 204 1.7 2.6 0.00 0.00 0.00 1008.8
20260504015814 0 210 0.9 0.9 0.00 0.00 0.00 1008.9
20260504015311 0 207 0.9 1.7 0.00 0.00 0.00 1008.7
20260504014808 0 208 1.7 2.6 0.00 0.00 0.00 1008.6
20260504014303 0 209 0.9 1.7 0.00 0.00 0.00 1008.4
20260504013801 0 209 0.9 1.7 0.00 0.00 0.00 1008.6
20260504013259 0 209 0.9 1.7 0.00 0.00 0.00 1008.5
20260504012754 0 211 1.7 1.7 0.00 0.00 0.00 1008.6
20260504012253 0 207 0.9 1.7 0.00 0.00 0.00 1008.4
20260504011749 0 224 1.7 1.7 0.00 0.00 0.00 1008.3
20260504011246 0 202 2.6 2.6 0.00 0.00 0.00 1008.4
20260504010742 0 207 1.7 1.7 0.00 0.00 0.00 1008.5
20260504010238 0 207 0.9 1.7 0.00 0.00 0.00 1008.6
20260504005735 0 224 0.9 1.7 0.00 0.00 0.00 1008.4
20260504005232 0 207 1.7 1.7 0.00 0.00 0.00 1008.3
20260504004729 0 209 0.9 1.7 0.00 0.00 0.00 1008.4
20260504004226 0 204 0.0 1.7 0.00 0.00 0.00 1008.2
20260504003723 0 207 0.9 1.7 0.00 0.00 0.00 1008.2
20260504003220 0 207 1.7 1.7 0.00 0.00 0.00 1008.2
20260504002717 0 203 2.6 2.6 0.00 0.00 0.00 1008.1
20260504002214 0 204 1.7 2.6 0.00 0.00 0.00 1008.1
20260504001712 0 210 1.7 1.7 0.00 0.00 0.00 1007.8
20260504001208 0 210 0.9 1.7 0.00 0.00 0.00 1008.0
20260504000705 0 210 1.7 1.7 0.00 0.00 0.00 1008.0
20260504000204 0 210 1.7 1.7 0.00 0.00 0.00 1007.9
20260503235700 0 211 1.7 1.7 0.00 0.00 0.00 1007.9
20260503235157 0 207 0.9 1.7 0.00 0.00 0.00 1007.8
20260503234655 0 210 0.9 0.9 0.00 0.00 0.00 1007.8
20260503234153 0 216 3.5 3.5 0.00 0.00 0.00 1007.9
20260503233649 0 220 1.7 5.2 0.00 0.00 0.00 1007.9
20260503233145 0 217 1.7 5.2 0.00 0.00 0.00 1007.8
20260503232642 0 214 1.7 2.6 0.00 0.00 0.00 1007.6
20260503232139 0 214 0.0 2.6 0.00 0.00 0.00 1007.7
20260503231638 0 224 4.3 6.1 0.00 0.00 0.00 1007.8
20260503231133 0 232 6.1 9.6 0.00 0.00 0.00 1007.8
20260503230630 0 209 3.5 7.0 0.00 0.00 0.00 1007.8
20260503230128 0 224 2.6 5.2 0.00 0.00 0.00 1007.7
20260503225625 0 237 4.3 6.1 0.00 0.00 0.00 1007.7
20260503225124 0 223 1.7 6.1 0.00 0.00 0.00 1007.7
20260503224622 0 264 5.2 9.6 0.00 0.00 0.00 1007.5
20260503224120 0 238 3.5 5.2 0.00 0.00 0.00 1007.7
20260503223618 0 226 1.7 6.1 0.00 0.00 0.00 1007.6
20260503223113 0 239 4.3 6.1 0.00 0.00 0.00 1007.7
20260503222612 0 218 3.5 6.1 0.00 0.00 0.00 1007.8
20260503222109 0 276 5.2 9.6 0.00 0.00 0.00 1007.8
20260503221607 0 218 1.7 7.0 0.00 0.00 0.00 1007.8
20260503221104 0 230 5.2 7.8 0.00 0.00 0.00 1007.8
20260503220600 0 228 1.7 7.8 0.00 0.00 0.00 1007.6
20260503220057 0 226 2.6 5.2 0.00 0.00 0.00 1008.0
20260503215554 0 260 4.3 6.1 0.00 0.00 0.00 1007.9
20260503215051 0 242 3.5 6.1 0.00 0.00 0.00 1007.7
20260503214550 0 235 3.5 6.1 0.00 0.00 0.00 1007.9
20260503214046 0 214 2.6 7.0 0.00 0.00 0.00 1008.1
20260503213544 0 277 5.2 7.0 0.00 0.00 0.00 1007.8
20260503213041 0 251 6.1 11.3 0.00 0.00 0.00 1007.6
20260503212538 0 275 3.5 6.1 0.00 0.00 0.00 1007.9
20260503212036 0 273 7.8 9.6 0.00 0.00 0.00 1007.9
20260503211532 0 265 7.8 9.6 0.00 0.00 0.00 1007.7
20260503211028 0 240 5.2 15.6 0.00 0.00 0.00 1007.8
20260503210525 0 279 3.5 7.0 0.00 0.00 0.00 1007.7
20260503210021 0 313 6.1 11.3 0.00 0.00 0.00 1007.8
20260503205517 0 241 4.3 6.1 0.00 0.00 0.00 1007.7
20260503205014 0 293 7.8 11.3 0.00 0.00 0.00 1007.7
20260503204511 0 235 7.0 11.3 0.00 0.00 0.00 1007.6
20260503204008 0 217 7.0 13.9 0.00 0.00 0.00 1007.8
20260503203505 0 213 3.5 11.3 0.00 0.00 0.00 1007.7
20260503203002 0 241 6.1 7.8 0.00 0.00 0.00 1007.8
20260503202500 0 203 7.8 13.0 0.00 0.00 0.00 1007.9
20260503201958 0 269 7.0 8.7 0.00 0.00 0.00 1007.6
20260503201455 0 254 3.5 12.2 0.00 0.00 0.00 1007.8
20260503200952 0 290 11.3 15.6 0.00 0.00 0.00 1007.6
20260503200449 0 295 10.4 13.0 0.00 0.00 0.00 1007.7
20260503195945 0 321 5.2 8.7 0.00 0.00 0.00 1007.8
20260503195443 0 251 7.0 8.7 0.00 0.00 0.00 1007.7
20260503194939 0 272 7.8 12.2 0.00 0.00 0.00 1007.7
20260503194436 0 207 4.3 11.3 0.00 0.00 0.00 1007.7
20260503193931 0 236 5.2 11.3 0.00 0.00 0.00 1007.8
20260503193427 0 278 6.1 13.9 0.00 0.00 0.00 1007.9
20260503192923 0 285 5.2 13.0 0.00 0.00 0.00 1008.0
20260503192420 0 290 4.3 11.3 0.00 0.00 0.00 1008.2
20260503191911 0 267 5.2 9.6 0.00 0.00 0.00 1008.1
20260503191408 0 225 7.0 13.9 0.00 0.00 0.00 1008.2
20260503190904 0 305 7.8 13.9 0.00 0.00 0.00 1008.2
20260503190402 0 309 9.6 13.9 0.00 0.00 0.00 1008.1
20260503185858 0 246 5.2 13.9 0.00 0.00 0.00 1008.4
20260503185355 0 296 8.7 14.8 0.00 0.00 0.00 1008.3
20260503184854 0 225 5.2 8.7 0.00 0.00 0.00 1008.1
20260503184350 0 256 4.3 12.2 0.00 0.00 0.00 1008.5
20260503183846 0 294 7.8 9.6 0.00 0.00 0.00 1008.5
20260503183344 0 335 7.0 7.8 0.00 0.00 0.00 1008.7
20260503182841 0 245 7.8 12.2 0.00 0.00 0.00 1008.8
20260503182340 0 271 7.0 13.9 0.00 0.00 0.00 1008.7
20260503181837 0 313 11.3 13.0 0.00 0.00 0.00 1008.6
20260503181334 0 227 7.8 15.6 0.00 0.00 0.00 1008.8
20260503180830 0 319 7.8 13.9 0.00 0.00 0.00 1009.0
20260503180328 0 292 7.8 15.6 0.00 0.00 0.00 1008.9
20260503175824 0 326 6.1 7.0 0.00 0.00 0.00 1008.9
20260503175323 0 343 8.7 13.0 0.00 0.00 0.00 1009.0
20260503174818 0 252 7.8 12.2 0.00 0.00 0.00 1009.0
20260503174316 0 223 8.7 11.3 0.00 0.00 0.00 1009.2
20260503173811 0 252 6.1 11.3 0.00 0.00 0.00 1009.1
20260503173308 0 258 7.0 12.2 0.00 0.00 0.00 1009.1
20260503172805 0 258 6.1 7.8 0.00 0.00 0.00 1009.2
20260503172305 0 251 4.3 8.7 0.00 0.00 0.00 1009.4
20260503171758 0 280 6.1 9.6 0.00 0.00 0.00 1009.5
20260503171255 0 220 4.3 11.3 0.00 0.00 0.00 1009.6
20260503170752 0 315 7.0 12.2 0.00 0.00 0.00 1009.5
20260503170249 0 295 8.7 12.2 0.00 0.00 0.00 1009.7
20260503160211 0 342 4.3 9.6 0.00 0.00 0.00 1009.9
20260503150641 0 241 7.8 13.9 0.00 0.00 0.00 1010.2
20260503150137 0 243 5.2 12.2 0.00 0.00 0.00 1010.3
20260503131031 0 326 7.8 8.7 0.00 0.00 0.00 1010.4
20260503130528 0 239 3.5 7.0 0.00 0.00 0.00 1010.4
20260503110419 0 220 1.7 2.6 0.00 0.00 0.00 1009.9